Wind_Speed
33 30 28 28 29 29 29 29 30 31 30 29 29 28 25 24 24 23 22 23 23 22 22 21 21 21 21 22 23 24 24 23 23 23 25 26 26 26 26 26 26 26 26 27 27 28 28 28 28 28 27 27 27 28 28 29 29 28 27 26 25 24 24 23 23 22 22 23 23 23 23 24 26 26 26 25 25 25 23 19 18 18 18 19 20 23 25
33 30 29 29 28 29 29 28 28 28 28 27 27 27 25 25 24 22 20 21 21 21 20 20 19 19 20 20 21 22 22 23 23 24 25 25 26 26 26 27 27 27 27 28 28 28 28 28 28 28 28 29 29 29 29 30 29 29 27 27 26 26 25 24 24 24 24 23 23 23 23 24 24 25 25 25 25 25 24 23 21 20 19 19 19 21 23
33 32 31 30 29 29 29 29 29 28 28 27 27 26 25 24 23 22 21 21 21 21 21 21 21 21 21 21 21 22 23 24 25 25 25 25 25 25 26 26 27 27 28 28 29 29 29 29 29 29 30 30 30 30 30 30 29 29 28 29 29 28 27 26 26 26 26 26 25 24 24 24 24 24 25 25 24 24 24 24 24 24 23 22 21 21 22
35 35 33 32 30 30 30 30 30 29 29 28 27 26 25 23 22 21 21 21 21 22 22 23 23 24 23 23 23 24 25 25 25 26 26 26 26 25 25 26 26 27 29 29 30 30 31 31 31 31 31 32 32 32 32 31 31 31 31 32 31 31 30 29 28 27 27 28 28 26 26 26 26 25 25 25 25 24 24 24 24 24 25 25 25 24 24
34 34 35 34 32 32 33 32 31 30 29 28 27 26 25 23 22 21 20 19 20 21 22 23 23 24 24 25 25 26 26 26 26 26 26 26 26 25 25 25 26 27 29 30 31 31 32 32 32 32 32 32 33 33 33 33 33 33 32 32 32 32 32 31 30 29 28 28 29 29 28 27 27 27 26 25 25 25 25 25 25 25 25 25 27 27 27
32 32 33 34 33 34 34 33 32 31 30 28 27 26 25 24 22 21 20 20 20 21 21 21 22 23 24 24 25 25 25 26 26 27 27 27 26 26 26 26 26 27 28 29 30 31 31 31 32 32 32 33 34 35 35 35 35 34 33 32 32 33 33 33 32 31 29 28 28 29 29 28 28 28 28 28 27 26 25 26 26 26 26 26 27 28 29
32 31 32 33 34 34 32 31 32 32 31 30 29 27 26 26 24 23 23 23 22 23 24 24 23 23 24 24 24 24 24 25 25 25 26 26 26 26 27 27 27 28 29 30 30 31 32 32 32 33 34 34 35 36 37 37 37 36 35 34 34 34 34 34 33 32 31 29 28 28 29 29 29 29 30 29 29 28 27 26 26 27 28 28 28 28 29
33 33 34 35 35 33 32 32 32 31 31 31 30 29 28 27 26 25 26 25 24 24 25 26 25 24 24 24 24 24 24 24 24 24 25 26 26 27 27 27 28 29 30 31 32 33 34 34 35 35 35 36 37 37 38 38 38 37 37 36 36 35 34 34 33 32 31 30 29 29 29 30 31 31 31 31 30 30 29 28 27 27 28 29 29 29 30
33 33 35 34 33 32 32 32 31 31 30 30 29 28 28 27 26 25 26 26 25 23 23 24 25 25 26 26 27 27 27 27 26 26 27 27 28 28 28 28 28 29 30 31 32 33 34 35 35 36 37 37 37 37 38 38 38 38 38 38 37 37 37 36 35 34 34 33 32 31 30 31 31 32 32 32 32 32 31 30 30 29 28 29 30 30 31
30 31 31 32 31 31 30 31 31 31 30 30 29 28 28 27 27 26 26 27 27 26 25 25 26 27 27 28 28 28 28 28 28 29 30 31 31 31 31 30 30 30 31 31 31 32 33 33 34 35 36 36 37 37 38 39 39 39 39 39 39 39 39 39 38 38 36 36 35 34 32 31 31 32 33 33 33 33 33 32 31 31 30 30 30 30 31
27 28 30 30 30 29 28 29 30 30 30 30 29 29 29 28 28 28 28 28 28 27 26 26 26 26 26 27 28 28 29 29 29 30 31 31 32 32 32 32 32 32 31 31 32 32 33 33 34 35 35 36 37 37 38 39 39 39 40 40 39 39 39 40 39 39 39 38 37 36 35 33 32 32 33 33 34 34 34 34 33 32 32 31 31 31 31
24 26 28 28 28 27 27 28 28 28 28 28 29 30 29 27 26 27 27 27 27 27 26 26 26 26 26 27 28 28 29 29 28 28 28 29 29 30 31 32 33 33 32 33 33 34 34 35 35 36 36 37 37 38 39 39 40 40 41 41 41 41 42 42 42 42 43 43 42 40 39 38 37 35 34 34 34 35 35 35 34 34 33 33 32 32 32
24 24 25 25 26 26 25 26 26 26 27 27 28 29 26 24 24 24 23 23 24 25 25 25 25 26 26 26 26 26 26 26 26 25 26 26 27 29 30 31 32 33 33 34 34 35 36 36 37 38 38 39 40 40 41 42 42 43 44 45 45 46 46 46 47 47 47 48 47 46 45 44 43 41 39 37 36 35 36 36 35 35 34 34 34 33 33
24 24 24 24 24 24 24 24 25 26 26 27 27 26 24 24 24 23 22 22 22 23 24 24 24 25 25 24 23 23 22 23 23 23 24 25 26 27 28 29 30 31 32 33 34 35 36 37 38 39 40 41 42 43 43 44 45 46 47 48 48 49 50 50 50 50 51 51 51 51 51 50 49 47 45 42 39 38 37 37 36 35 35 35 35 34 35
25 25 25 25 24 24 24 25 25 26 26 25 23 22 22 23 23 22 22 22 22 22 23 23 23 22 22 21 21 21 21 21 21 22 23 24 26 27 27 28 29 30 31 32 32 33 34 35 36 37 38 39 40 42 43 43 45 46 46 47 48 49 50 51 52 52 52 52 53 53 54 54 53 52 50 47 44 42 41 40 38 37 36 35 35 35 35
25 24 25 25 24 24 25 25 25 25 24 23 22 21 21 21 21 21 21 21 21 21 21 21 20 20 20 20 20 20 20 21 22 23 24 25 26 26 27 27 27 28 28 29 29 30 31 32 33 34 36 37 38 39 40 41 43 44 45 46 46 47 48 49 50 51 51 51 52 52 53 54 54 54 53 51 49 46 44 42 41 40 38 37 36 34 34
24 25 25 25 25 25 25 24 24 24 23 23 22 22 21 20 20 20 20 20 20 19 19 19 19 19 19 19 19 20 20 21 22 22 23 23 23 23 23 24 24 24 25 26 27 28 29 31 32 33 35 36 37 39 40 41 42 43 44 45 46 47 47 48 49 50 50 50 50 50 51 52 52 53 53 52 52 50 47 43 42 42 41 39 38 36 34
24 25 25 25 25 25 24 24 24 24 24 23 23 22 22 21 21 20 20 19 19 18 18 19 19 19 19 19 19 19 19 19 19 19 19 19 19 20 20 21 22 23 24 25 26 28 29 30 32 33 34 36 37 38 39 41 42 43 44 45 46 47 48 48 49 50 50 50 51 50 50 50 50 50 51 51 51 51 49 46 42 41 41 40 39 37 35
23 23 23 23 24 24 24 23 23 23 24 23 23 23 22 22 21 21 20 20 19 19 19 19 18 18 18 17 17 17 16 16 16 16 16 16 17 18 19 20 21 22 23 24 25 26 27 29 30 32 33 34 36 37 38 39 40 41 42 44 44 45 46 47 48 49 49 50 51 51 51 51 50 50 49 49 50 50 50 48 44 41 40 39 39 38 37
21 21 21 22 22 22 22 22 22 22 22 22 22 21 21 21 20 20 20 19 19 18 18 17 17 16 16 15 15 15 14 14 14 14 14 15 15 16 17 17 18 19 20 21 23 24 25 27 29 30 32 33 35 36 37 38 39 40 41 42 43 43 44 45 46 47 48 49 49 50 50 51 51 50 49 49 49 49 49 48 46 42 39 38 37 38 38
20 20 20 20 20 21 21 21 21 21 21 20 20 20 19 19 19 18 18 17 16 16 15 15 14 14 14 13 13 12 11 11 11 11 12 12 13 13 13 14 15 16 17 18 20 21 22 24 25 27 28 30 31 33 34 35 36 37 38 38 39 40 41 41 42 43 44 45 46 47 48 49 49 50 50 49 48 48 48 48 47 45 42 39 37 36 38
20 20 20 20 20 20 20 21 21 20 20 20 20 19 18 17 17 16 15 14 14 14 13 13 13 13 12 11 10 9 9 9 9 9 8 9 9 9 10 11 12 13 14 15 16 18 19 20 22 23 24 26 27 28 29 30 31 32 32 33 34 35 36 37 37 38 39 40 41 42 44 45 46 47 48 48 49 48 47 47 47 46 44 42 39 36 36
21 21 21 21 20 20 21 21 21 20 20 20 19 18 17 16 14 13 13 13 13 13 13 13 12 11 10 9 8 7 7 6 5 5 5 6 6 7 8 9 10 11 12 13 14 16 17 19 20 22 24 25 27 27 28 28 28 28 28 29 29 29 30 31 32 33 34 35 36 37 38 39 41 42 43 45 47 47 47 46 46 46 45 44 42 39 37
21 21 21 21 21 21 21 20 20 20 20 19 18 16 15 15 14 13 13 13 13 13 13 12 12 10 9 8 7 6 4 3 2 2 3 4 5 5 6 7 8 9 11 12 14 16 18 19 21 23 25 27 29 30 31 31 30 29 29 28 28 28 28 28 28 29 31 31 32 34 34 35 36 37 39 40 42 44 45 45 45 45 44 43 42 41 39
21 21 21 20 20 20 20 19 19 19 18 17 16 16 15 15 14 14 14 14 14 14 13 12 11 10 9 7 5 3 1 1 1 2 2 3 3 4 5 7 8 10 11 13 15 17 18 20 22 24 26 28 30 32 33 33 33 32 30 29 28 28 28 27 27 27 28 29 30 31 32 32 33 34 35 36 38 40 42 43 43 43 43 43 42 41 41
21 21 20 20 19 19 18 17 17 16 16 16 15 15 16 16 16 16 16 16 15 14 13 12 11 9 8 6 3 1 1 1 1 1 1 2 3 5 6 8 10 11 13 14 16 17 19 21 22 24 26 28 29 31 33 34 34 34 33 31 29 28 27 27 27 27 27 27 27 28 29 30 31 31 32 33 34 36 37 39 40 41 41 41 41 40 41
20 20 20 19 18 17 17 17 16 16 15 15 16 16 17 17 17 17 17 17 15 14 13 12 11 9 7 4 2 2 1 1 0 1 2 3 4 6 7 9 11 12 14 15 16 18 19 20 22 23 25 26 28 29 31 33 34 35 35 34 32 30 28 27 27 27 27 26 26 26 27 27 28 29 30 31 32 33 34 35 37 38 39 40 39 39 39
19 19 20 19 18 17 16 17 17 16 16 16 17 18 19 19 19 18 17 16 14 13 13 12 10 8 5 3 3 2 2 1 1 1 3 4 5 7 8 10 11 13 14 15 16 17 19 20 21 22 24 25 26 28 29 31 33 34 35 36 35 34 31 30 29 28 27 27 27 27 27 27 26 27 27 28 29 31 32 33 34 35 36 37 38 38 38
16 16 17 18 19 17 15 15 16 17 18 19 19 20 20 19 18 17 16 14 14 13 13 11 9 6 5 4 4 3 2 2 1 2 3 5 6 7 9 10 12 13 14 15 16 17 18 19 21 22 23 24 25 26 28 29 31 32 34 35 36 36 35 33 31 30 29 29 28 28 28 28 27 26 25 26 26 27 29 30 31 32 34 35 36 36 37
14 14 14 17 18 18 17 17 18 20 21 21 20 20 19 18 17 16 15 15 14 13 11 9 7 6 5 5 5 4 3 2 1 2 4 5 6 8 9 10 12 13 14 15 16 17 18 19 21 22 23 23 25 26 27 28 29 31 32 34 35 37 37 36 34 32 31 31 30 30 30 30 30 28 26 25 24 24 25 26 27 29 31 32 33 34 35
15 14 14 16 18 19 19 19 20 20 20 20 19 19 18 17 16 16 16 15 14 12 10 8 7 7 7 6 5 4 3 2 1 2 4 6 7 8 10 11 12 14 15 16 17 18 19 20 21 21 22 23 24 25 27 28 29 30 31 33 35 36 37 38 37 35 33 32 32 32 32 32 31 30 28 26 25 24 23 23 24 25 27 28 30 31 32
16 14 14 15 17 18 19 20 19 18 18 18 17 17 17 17 17 17 16 15 12 10 9 8 8 8 8 7 6 4 3 2 2 2 4 6 8 9 11 12 14 15 16 17 18 19 19 20 21 21 22 23 24 25 26 27 28 30 31 32 33 35 37 38 39 38 36 34 33 33 33 33 33 32 31 29 26 24 23 22 22 23 24 25 26 27 28
18 16 15 15 16 16 17 17 17 17 17 17 17 17 17 17 17 16 15 13 11 10 9 9 10 9 8 7 6 5 4 2 2 3 5 7 9 10 12 13 15 16 17 18 19 19 20 20 21 21 22 23 24 25 26 27 28 29 30 31 32 34 36 38 39 40 39 37 35 34 34 34 34 34 33 31 29 26 24 22 22 22 22 22 23 24 25
16 16 16 16 16 16 16 16 16 16 16 16 16 17 17 16 15 14 13 11 11 10 10 10 10 10 9 8 6 5 4 2 2 3 5 7 9 11 13 15 16 17 18 19 20 20 21 21 21 21 22 23 24 25 26 27 28 29 30 31 32 33 35 37 38 40 40 39 38 36 35 35 35 35 34 33 31 28 25 23 22 22 21 21 21 21 22
13 14 15 15 15 15 15 14 14 15 15 16 16 16 15 14 13 12 12 11 11 11 11 11 11 10 9 8 6 5 4 3 2 4 6 8 10 12 14 16 18 19 20 20 21 21 21 21 21 22 22 23 24 25 26 27 28 29 30 31 32 33 34 35 37 39 40 40 39 38 36 36 35 35 34 34 32 30 27 25 23 22 21 21 20 20 20
12 12 13 13 13 13 13 13 13 14 15 15 15 15 14 13 13 12 12 12 11 11 11 11 11 10 9 7 6 5 4 3 3 5 7 9 11 13 15 16 18 19 20 21 21 21 21 21 21 22 22 23 24 24 25 26 28 29 30 31 32 33 33 34 36 38 39 40 40 39 38 36 36 35 35 34 32 30 27 26 24 22 21 21 20 20 20
10 10 11 11 12 12 13 13 13 14 14 14 14 14 13 13 13 13 12 12 11 11 12 12 11 9 8 7 6 5 4 4 5 6 8 10 12 14 15 17 18 19 20 21 21 21 21 22 22 22 23 23 24 24 25 26 27 28 30 31 32 33 33 34 35 37 39 40 41 40 39 38 37 37 36 35 33 30 26 25 24 23 22 21 20 19 19
9 10 10 11 11 12 13 13 14 14 14 14 14 14 14 13 13 13 12 12 12 12 12 12 10 9 8 7 6 5 5 5 6 8 9 11 13 15 16 17 19 19 20 20 21 21 21 22 23 23 23 24 24 24 25 26 27 28 29 31 32 33 33 34 34 36 37 39 41 41 40 39 38 37 37 36 34 31 26 24 23 23 22 21 20 19 18
9 10 10 11 11 12 13 13 14 14 14 14 14 14 13 13 13 13 12 12 12 12 12 11 10 9 8 7 6 6 5 6 7 9 10 11 13 15 17 18 18 19 19 20 20 21 22 22 23 24 24 24 25 25 25 26 27 28 29 31 32 33 34 34 34 35 36 38 40 40 40 39 38 37 37 36 34 31 27 24 22 21 21 21 21 20 19
9 9 10 10 11 12 13 14 14 14 14 14 14 14 14 13 13 13 13 13 13 12 11 10 9 8 8 7 7 6 7 7 9 10 10 11 13 15 16 17 18 19 19 20 21 22 23 24 24 25 25 25 26 26 26 27 27 28 29 31 32 33 34 34 34 35 36 37 39 40 40 40 39 38 37 36 34 31 28 24 22 21 20 21 21 20 19
7 8 9 10 10 11 12 13 14 14 14 13 13 13 12 12 12 12 13 13 12 11 10 9 9 9 8 8 8 8 8 9 10 10 11 12 13 15 16 17 18 19 20 21 22 23 25 26 26 27 27 27 27 27 27 27 28 29 30 31 32 33 34 34 35 35 35 36 38 40 40 40 39 38 37 36 35 32 28 24 21 20 20 21 21 20 19
6 7 8 8 9 9 10 11 11 11 11 11 10 10 10 10 11 12 12 12 11 10 9 9 9 9 9 9 9 9 9 10 10 11 11 12 14 15 16 17 18 19 20 22 23 24 26 27 28 29 29 29 29 29 28 28 28 29 30 31 32 33 34 35 35 35 35 36 37 39 40 40 39 38 37 36 34 32 28 24 21 19 19 20 20 20 19
5 6 7 8 9 9 9 9 9 10 9 9 9 9 10 10 11 12 11 11 10 10 10 10 10 10 10 10 10 10 10 11 11 12 13 14 15 17 17 18 19 20 21 23 24 25 27 28 29 30 30 31 31 30 30 29 29 30 30 31 32 33 34 35 35 35 35 36 37 38 40 40 39 39 38 36 34 32 28 25 21 19 19 19 19 19 18
6 7 8 9 10 10 10 10 10 10 10 10 10 10 11 12 12 12 11 11 10 11 11 11 11 11 11 11 11 11 12 12 13 13 14 15 17 18 19 20 21 22 23 24 25 26 27 29 30 31 32 32 32 32 31 31 30 30 31 32 33 33 34 35 35 35 35 35 36 37 39 40 40 39 38 36 34 32 29 25 22 20 19 19 19 19 18
7 7 8 9 10 11 11 11 11 11 10 10 11 11 12 13 13 13 12 11 11 11 12 12 12 12 12 12 12 13 13 14 14 15 15 17 18 19 20 21 22 23 24 25 26 27 28 29 30 32 33 33 33 33 33 32 32 31 32 32 33 34 34 35 36 35 35 35 35 36 38 39 40 39 38 37 35 32 29 26 23 20 19 19 20 19 18
8 8 9 10 11 12 12 12 11 11 11 11 11 12 13 13 14 13 12 11 11 12 12 13 13 13 13 13 14 14 14 15 15 16 17 18 19 20 21 22 23 24 25 26 27 28 28 29 31 32 33 34 34 34 34 34 33 32 32 33 33 34 35 35 36 36 35 35 35 36 37 38 39 39 38 37 35 33 30 27 24 21 19 19 19 19 19
9 9 9 11 12 12 12 12 12 11 11 11 11 12 13 13 14 14 14 13 13 13 13 14 14 15 15 15 15 15 16 16 17 17 18 19 20 21 22 23 24 26 27 27 28 29 29 30 31 32 34 35 35 35 35 35 34 33 33 33 34 34 35 36 36 36 36 35 35 36 36 38 39 39 39 38 36 34 31 28 25 22 20 19 19 19 18
10 10 10 11 12 13 13 12 12 12 11 11 11 12 13 14 15 15 16 15 15 15 15 15 16 16 16 16 17 17 17 18 18 19 19 20 21 22 23 24 26 27 28 29 29 30 30 31 32 33 34 35 35 36 36 35 35 34 34 34 34 34 35 36 36 36 36 35 35 36 36 37 38 39 39 38 37 35 32 29 27 24 22 21 20 20 19
11 11 11 12 14 14 14 13 13 12 12 12 12 12 13 14 15 17 17 18 18 18 17 17 17 17 17 17 18 18 19 19 19 20 20 21 22 23 24 26 27 28 29 30 31 31 31 32 33 34 35 35 36 36 36 36 36 35 35 34 35 35 36 36 36 36 36 36 35 36 36 37 38 39 39 39 38 36 34 31 28 26 24 22 22 21 20
12 12 13 14 15 15 15 15 14 13 13 13 13 14 14 15 16 17 19 19 20 20 19 19 19 19 18 19 19 20 20 20 21 21 22 22 23 24 26 27 29 30 31 32 32 32 32 32 33 34 35 36 36 36 36 37 36 36 35 35 35 35 36 36 36 36 36 36 36 36 36 36 37 38 38 38 38 36 34 32 30 27 25 24 23 22 21
14 14 15 15 16 17 16 16 15 15 15 14 15 15 16 17 18 18 19 20 21 21 21 21 21 21 20 20 21 21 22 22 22 23 23 24 25 26 27 29 30 31 32 33 33 33 32 33 34 35 36 36 37 37 37 37 37 37 36 36 36 36 36 37 37 37 36 36 36 36 36 36 37 38 38 38 38 37 35 33 31 28 27 25 24 23 22
15 15 15 16 18 18 18 17 17 17 16 16 16 16 17 18 19 19 20 21 21 21 22 22 22 22 22 23 23 23 23 24 24 24 25 26 27 28 29 30 32 33 34 34 34 33 33 34 35 36 36 37 37 38 38 38 38 37 37 37 37 37 37 37 37 37 37 36 36 36 36 36 37 38 38 38 38 38 36 35 32 30 28 27 26 25 24
Wind_Direction
201 200 201 201 198 198 198 198 197 200 205 208 212 216 219 222 223 224 226 228 229 230 232 233 232 231 231 231 231 234 236 236 237 239 242 246 247 247 248 248 249 249 250 251 252 255 257 259 261 262 264 266 267 268 270 273 276 279 282 284 285 286 286 286 286 287 288 289 291 292 292 291 289 289 289 290 292 293 293 288 276 265 255 248 245 244 243
201 196 196 199 199 199 199 201 202 206 210 213 217 221 223 225 227 226 226 230 231 229 230 231 230 229 228 228 230 232 234 236 236 236 239 244 247 247 248 249 250 251 252 252 253 254 255 258 260 263 265 267 268 270 271 272 274 275 277 280 282 284 285 285 285 287 287 288 288 289 290 290 289 288 287 287 288 288 289 289 285 279 271 262 254 246 244
202 198 197 199 199 199 201 204 207 211 215 219 221 222 224 226 229 230 232 234 235 234 233 233 233 233 232 232 233 234 235 236 236 236 238 242 248 251 252 254 255 255 255 254 254 254 256 260 263 265 266 267 269 270 271 271 271 271 274 277 278 280 280 281 282 284 286 287 286 285 285 286 286 286 286 285 285 284 283 283 282 281 278 274 268 258 252
200 200 200 202 202 204 205 208 212 214 216 219 222 223 226 228 231 234 234 233 233 235 236 236 236 237 236 236 236 236 237 237 238 238 240 243 249 253 255 257 258 258 258 257 257 258 260 263 265 266 266 266 267 269 270 271 271 273 275 277 277 277 276 277 278 280 282 285 285 284 282 281 281 282 283 283 282 282 281 279 277 276 276 275 273 268 264
200 201 203 205 206 207 208 208 211 214 216 219 223 226 229 231 233 234 233 230 229 231 235 236 237 238 238 237 238 238 239 240 241 242 244 247 250 253 255 257 258 259 259 259 260 261 262 264 265 265 265 265 266 268 270 271 273 275 276 276 277 277 277 276 276 276 277 280 283 284 282 280 279 278 279 279 279 279 279 278 277 274 272 272 271 270 269
203 203 205 207 208 209 210 210 212 215 218 221 225 228 232 235 236 235 232 231 232 233 235 237 238 239 239 239 240 241 243 245 246 248 249 250 251 252 255 257 259 259 260 260 261 261 262 264 264 264 264 264 266 268 269 271 273 274 275 276 278 279 279 278 277 276 275 276 278 281 282 282 280 279 277 277 276 276 275 275 275 275 272 270 268 269 269
208 209 208 211 213 213 213 215 217 220 222 225 229 232 236 239 239 236 234 236 240 241 239 239 240 241 241 241 243 245 247 249 251 252 252 252 252 254 256 259 260 261 261 261 263 264 264 265 265 265 265 266 267 268 269 270 272 273 275 276 277 278 279 278 278 277 276 275 274 275 278 281 282 281 278 276 275 274 274 272 272 272 273 272 269 268 268
208 211 212 214 216 216 217 220 223 224 227 230 233 236 239 240 240 238 238 242 247 246 240 238 240 242 244 246 248 251 253 255 255 255 255 255 255 257 259 260 262 262 263 265 266 268 268 268 268 268 268 268 268 269 270 271 272 274 275 275 276 277 277 278 278 278 278 277 275 273 275 278 280 281 279 277 275 274 273 273 272 270 270 271 272 270 269
209 211 214 217 219 219 220 223 225 227 230 233 236 237 239 241 240 239 240 243 247 248 243 241 242 245 248 251 254 256 258 258 258 258 257 257 258 260 261 263 264 265 267 268 270 270 270 270 270 270 269 269 270 270 271 272 273 274 274 274 275 275 276 277 277 278 279 279 277 276 276 277 279 279 279 278 276 275 273 272 272 271 269 269 271 272 271
211 214 217 219 221 220 221 224 227 229 232 234 236 237 238 239 239 240 241 243 246 248 247 245 245 248 250 253 256 257 258 259 259 260 259 259 260 262 264 265 266 267 269 269 270 270 271 272 272 272 272 271 271 271 271 272 273 274 274 275 275 276 276 277 277 278 279 279 279 278 277 277 277 277 278 278 277 276 275 273 272 271 270 269 269 270 271
209 213 217 221 223 223 224 226 228 230 232 234 237 239 239 239 241 243 244 245 246 247 247 248 248 250 252 254 256 257 258 259 260 261 261 260 261 262 264 265 267 268 269 269 269 270 272 273 274 274 273 272 272 272 272 273 274 274 275 276 276 276 277 278 279 279 280 280 279 279 279 279 277 276 276 277 276 276 276 274 273 272 270 269 268 269 270
208 212 216 220 223 224 225 227 229 230 232 234 236 239 239 239 241 244 245 245 245 246 247 248 249 251 253 256 257 257 258 259 260 261 260 260 261 262 263 264 266 267 268 268 269 270 271 272 273 273 273 273 273 273 273 274 274 274 275 275 276 276 277 278 279 280 281 281 281 280 280 281 281 279 276 275 275 275 276 275 275 274 272 270 268 268 269
207 211 214 218 222 223 225 227 228 229 231 232 234 237 238 237 239 243 246 246 245 245 246 247 248 250 252 255 256 255 256 257 259 259 259 260 261 262 263 264 265 267 268 269 269 270 271 271 272 272 273 274 274 274 274 275 275 275 275 276 277 277 277 278 278 279 280 281 281 281 280 281 282 282 280 277 274 273 274 274 274 273 273 272 270 269 269
213 217 220 223 225 226 226 227 227 228 229 231 234 237 238 238 240 243 245 246 245 245 245 245 246 247 249 251 252 253 254 255 256 258 259 261 262 263 264 266 267 268 269 270 271 272 272 272 273 273 273 274 275 275 276 276 276 276 277 277 277 278 278 278 278 278 278 279 279 280 280 280 280 281 281 280 277 273 272 272 272 272 271 270 270 270 270
222 226 228 229 229 228 227 226 227 228 230 232 234 236 236 237 238 240 241 242 243 243 243 244 245 246 247 249 251 252 254 255 257 259 261 263 264 266 267 268 270 271 272 273 275 275 276 276 277 277 276 276 276 276 277 277 278 278 278 278 278 278 278 278 278 278 278 277 277 278 278 278 279 279 280 280 279 275 272 271 270 270 269 268 268 268 270
224 227 229 228 227 227 226 225 226 228 229 230 231 232 232 233 234 234 235 237 238 239 240 242 243 245 247 249 251 254 256 258 260 262 264 265 267 268 270 271 273 274 276 278 279 280 280 281 281 281 280 280 279 279 278 278 277 277 277 277 277 277 277 277 277 278 278 277 277 276 276 276 276 277 277 278 279 277 274 271 270 270 269 268 267 267 268
221 222 224 224 224 224 224 224 224 225 227 227 227 228 228 228 228 229 230 231 233 235 237 239 242 244 247 250 253 256 258 260 262 263 265 267 268 270 272 275 277 279 281 283 284 284 285 285 285 284 284 283 283 282 281 280 280 279 278 278 277 277 276 276 275 275 275 275 275 275 275 275 275 275 275 275 275 276 276 274 271 269 269 268 268 267 266
220 220 221 222 222 223 223 223 222 222 223 224 224 224 223 224 225 226 228 231 234 236 239 242 244 247 249 251 254 256 258 260 262 264 266 268 271 275 278 281 283 285 287 288 288 289 289 289 288 288 287 286 286 285 285 284 283 281 280 280 279 278 278 277 276 275 275 274 274 274 274 274 273 273 274 274 273 273 274 274 273 270 269 268 267 267 264
220 220 220 221 221 222 223 223 222 222 223 223 223 224 224 226 227 229 232 234 236 238 240 241 243 245 247 250 252 255 257 260 263 266 270 274 278 281 284 286 288 290 291 292 293 294 294 295 295 295 294 293 292 290 289 288 286 284 283 281 280 279 278 277 276 276 275 274 274 273 273 272 272 271 272 272 272 271 271 272 272 271 268 266 265 265 263
219 219 220 220 220 220 221 222 222 223 224 224 225 226 227 228 230 231 232 233 234 235 236 238 241 243 245 248 250 253 257 262 266 270 274 278 281 284 288 291 294 296 299 302 304 306 307 308 307 307 305 304 302 300 297 295 293 290 288 286 284 282 280 279 277 276 275 274 273 272 272 271 270 270 269 269 270 270 270 270 270 270 268 266 262 261 260
218 218 219 219 219 219 218 220 221 222 222 223 224 225 226 227 227 228 228 229 231 232 234 236 238 241 242 245 247 250 255 260 265 270 274 280 285 291 297 302 308 312 315 318 320 321 321 321 320 319 317 315 312 309 306 303 300 297 295 292 290 288 286 284 282 280 278 276 274 272 271 270 269 269 268 267 267 268 269 269 269 268 267 265 262 258 256
216 217 218 218 218 216 217 218 218 218 219 221 221 222 222 223 222 222 223 223 225 226 227 228 230 231 232 234 236 241 246 253 260 269 278 289 299 310 318 323 328 331 333 335 336 335 336 336 335 334 333 331 329 325 321 316 312 308 304 301 298 296 294 292 290 288 285 282 279 276 274 272 270 268 267 266 266 266 266 266 267 266 265 265 262 257 253
216 217 217 218 218 217 218 219 219 219 219 220 220 220 219 217 214 212 211 211 212 214 216 217 216 215 216 219 223 228 236 245 258 278 299 316 328 336 340 342 344 346 347 349 349 350 351 352 352 352 351 350 349 347 343 337 331 325 320 315 311 308 304 302 300 297 294 291 288 285 281 277 274 271 268 266 265 264 264 263 264 264 264 263 262 258 252
214 214 214 215 216 216 217 218 218 219 219 218 216 214 211 206 203 200 199 200 202 202 202 202 203 204 205 207 209 213 222 244 290 326 340 348 351 350 350 351 354 355 355 355 356 357 359 360 1 2 2 2 2 1 358 355 349 343 336 330 325 321 317 313 310 306 303 300 296 293 289 286 282 277 273 269 266 263 262 261 261 261 261 260 259 257 253
209 210 210 210 210 211 213 214 214 214 213 212 209 207 204 201 197 194 193 194 194 193 193 195 198 197 194 192 193 192 189 12 10 4 360 358 352 349 351 355 354 353 352 353 355 357 359 0 2 4 4 5 6 6 5 3 359 354 347 339 333 328 325 322 319 315 311 307 303 299 296 292 288 284 280 276 271 267 263 261 259 258 257 257 256 254 252
205 205 204 204 204 204 205 206 207 206 205 204 203 203 200 196 191 189 189 188 188 191 194 194 191 186 181 181 177 150 98 62 29 355 343 342 344 348 352 352 350 349 350 352 354 355 357 359 1 2 3 5 6 6 6 5 4 1 356 349 341 334 329 326 324 322 319 316 311 306 302 297 293 289 285 281 278 273 269 265 262 259 257 255 253 251 250
200 200 199 198 199 201 202 201 200 199 200 201 200 196 191 187 185 185 186 187 190 193 193 188 182 179 179 175 157 138 140 181 245 299 325 339 345 349 350 349 348 349 351 352 353 354 356 357 358 359 0 2 3 4 4 4 4 3 1 358 352 345 338 333 331 329 328 326 323 319 313 307 300 294 289 284 280 277 274 270 266 263 259 256 253 251 249
197 199 197 194 193 196 202 205 201 196 195 193 190 185 183 182 183 184 187 190 193 191 186 181 179 180 179 171 163 169 189 219 255 309 333 341 345 348 350 349 349 350 351 351 352 354 355 355 356 356 357 358 359 0 1 2 3 3 3 2 359 355 349 343 339 336 335 334 334 332 328 321 313 304 296 289 284 279 276 273 271 268 264 260 256 253 250
192 193 196 196 190 185 189 198 196 187 183 181 180 179 180 181 183 186 189 191 189 185 181 180 180 182 183 181 182 192 207 226 272 321 335 339 344 348 350 350 350 350 349 350 351 352 353 353 354 355 355 355 356 357 357 358 360 1 2 2 1 359 356 352 346 343 341 341 341 341 339 335 329 320 309 300 292 285 280 276 273 271 269 266 261 256 253
172 175 187 192 182 169 169 179 180 176 175 176 177 178 180 182 184 187 188 186 184 182 181 181 182 188 193 194 197 203 214 235 280 321 333 338 344 348 349 349 349 348 348 348 349 349 350 351 352 353 353 354 354 354 355 355 355 357 359 0 0 360 359 357 353 349 347 346 346 345 344 343 339 333 324 313 303 295 289 283 278 275 273 270 267 261 256
153 159 171 176 168 161 163 172 174 173 174 176 177 180 182 183 184 184 184 184 185 185 183 184 190 198 201 201 205 212 220 234 272 316 333 338 342 345 345 345 344 344 345 345 344 345 347 348 349 350 351 352 353 353 353 353 352 353 354 356 358 358 358 358 356 354 351 348 348 348 347 346 344 341 334 324 314 306 299 294 288 282 277 274 271 267 262
146 149 157 162 162 163 166 169 172 173 175 178 181 184 184 183 182 182 184 186 189 189 189 192 198 203 204 204 211 221 225 235 274 321 334 336 339 341 341 341 340 341 341 341 341 342 343 344 345 346 348 350 351 352 352 352 351 351 350 351 353 355 356 356 356 355 353 351 350 349 349 348 347 345 340 333 323 314 307 303 298 292 285 280 276 273 269
147 150 156 162 163 166 169 171 173 176 179 182 184 185 184 183 184 185 188 192 194 196 198 200 201 202 204 209 217 224 228 239 287 325 331 333 335 336 337 337 337 338 338 338 338 338 338 339 341 343 345 347 349 350 351 351 350 349 348 348 349 351 353 354 354 354 353 352 351 350 349 349 348 346 342 338 331 322 313 308 305 301 295 288 282 278 274
153 158 163 166 167 170 173 177 179 181 183 184 184 185 185 186 189 192 195 199 201 202 201 201 201 203 207 212 218 222 227 241 288 319 325 328 331 333 333 334 334 335 336 336 335 335 335 336 337 338 341 344 346 348 349 350 350 348 347 346 346 347 350 351 352 352 352 352 351 350 349 349 348 346 343 339 335 328 319 312 308 306 302 297 290 283 279
163 166 168 170 172 174 177 180 183 184 185 185 185 187 190 192 197 202 205 206 205 203 201 201 202 205 210 214 216 217 222 241 287 312 317 323 327 330 331 332 333 334 334 333 333 333 333 333 333 335 337 341 343 345 347 348 348 348 346 345 344 345 346 348 349 350 351 351 350 350 349 348 348 346 344 341 337 331 323 317 312 308 305 302 296 289 284
167 170 173 175 176 177 179 183 186 187 188 189 190 192 196 201 206 208 208 206 205 202 201 202 205 209 214 217 216 216 223 246 286 305 313 320 324 327 330 332 333 333 332 332 331 331 331 331 331 333 335 338 340 342 344 345 347 347 346 344 343 343 344 345 347 348 349 349 349 349 349 348 347 346 344 342 339 334 326 320 316 312 308 305 300 294 287
169 173 177 181 182 183 184 188 190 192 193 195 196 199 203 207 210 210 209 206 202 199 200 203 207 212 216 218 219 222 234 262 291 305 314 320 323 326 330 332 333 333 332 331 331 331 331 331 331 332 333 335 337 339 341 343 344 345 345 344 343 342 342 343 344 346 347 348 348 348 348 347 347 346 345 343 341 337 330 323 318 316 313 309 306 301 293
172 176 181 185 189 191 192 193 196 198 198 198 200 202 205 208 210 210 208 204 200 198 200 205 210 214 216 218 223 231 249 274 294 306 315 320 323 327 331 333 334 334 334 334 334 335 334 333 333 332 333 333 335 336 338 340 342 343 343 343 342 341 341 341 342 343 345 346 347 347 348 347 347 346 344 343 341 338 333 326 321 319 318 316 313 309 302
175 179 183 187 191 195 197 197 198 200 200 200 200 202 205 207 208 208 206 202 198 198 202 208 213 216 218 220 227 240 259 279 294 305 313 319 324 327 331 334 336 337 338 338 339 339 339 338 337 336 335 334 334 335 336 338 340 341 342 342 341 340 340 340 340 341 343 345 346 346 347 347 346 345 344 343 341 338 334 328 323 323 326 326 321 315 309
175 179 183 187 191 195 197 196 195 196 197 197 197 199 201 203 204 204 202 198 197 199 204 210 215 220 223 227 235 248 265 281 293 302 310 316 322 327 331 334 337 339 341 342 342 342 342 342 342 341 339 337 335 335 335 337 338 339 340 340 340 339 339 339 339 339 341 343 345 346 346 346 346 345 344 343 341 338 334 329 325 325 330 332 328 321 314
176 180 184 187 190 191 192 192 192 193 195 196 196 198 199 200 199 198 197 196 198 203 209 214 219 224 228 233 242 255 270 283 293 299 305 313 320 326 329 333 336 339 340 341 341 341 341 342 342 342 342 340 338 336 335 335 336 337 338 339 338 338 338 337 337 338 340 342 343 345 346 346 346 346 345 344 342 340 335 329 325 324 326 330 331 327 319
185 188 190 192 193 194 193 192 193 196 199 200 201 202 202 200 198 196 196 198 203 211 217 222 225 229 233 239 249 262 275 285 292 296 301 308 317 322 326 329 333 335 336 336 337 338 339 339 340 341 342 341 340 338 336 335 335 336 337 337 337 337 337 336 336 337 338 340 341 343 344 345 346 346 345 344 343 340 336 330 324 321 320 323 327 329 325
200 201 200 199 199 199 199 200 201 204 206 207 207 208 207 204 201 199 201 205 213 220 224 227 229 232 237 244 255 267 278 284 289 292 297 305 313 318 322 325 328 330 331 331 333 334 336 337 338 339 339 340 340 339 337 335 334 335 335 336 336 336 336 335 336 336 337 338 340 341 343 344 345 346 346 346 344 342 337 331 324 318 315 315 318 323 326
212 211 208 205 202 199 200 203 206 208 209 210 210 209 208 205 203 203 207 214 221 226 228 230 233 236 241 249 260 271 279 285 288 291 295 302 308 314 318 321 324 325 326 327 328 330 332 334 335 336 337 338 338 338 337 336 334 334 334 335 335 335 335 335 335 335 335 337 338 340 341 343 344 345 346 346 345 343 339 332 324 317 314 314 314 316 320
221 219 214 209 205 202 203 205 207 208 209 211 212 210 208 206 206 208 213 220 226 229 231 235 238 241 246 255 265 273 280 286 289 291 294 299 304 309 314 317 320 322 323 324 325 327 329 331 333 334 335 335 336 336 337 335 334 333 333 333 334 335 335 334 333 334 334 335 336 338 339 341 343 344 345 346 345 344 341 334 325 317 312 311 312 312 315
230 227 221 215 210 207 207 208 210 211 212 213 213 213 212 211 212 216 221 227 231 233 237 240 244 248 253 260 268 276 282 286 290 292 294 297 301 306 310 314 317 319 321 322 323 324 325 328 330 332 333 333 334 334 335 335 333 332 332 332 333 334 334 333 333 332 333 333 335 336 338 339 341 343 344 345 345 344 341 336 328 318 309 306 307 309 311
238 236 230 222 216 212 212 213 215 217 219 219 218 217 218 220 222 225 229 233 236 239 243 246 250 253 258 264 270 277 282 287 290 292 295 297 301 305 308 312 315 317 319 321 322 322 323 325 328 330 331 331 332 332 333 333 333 331 331 331 332 332 333 333 332 332 332 332 333 334 336 338 339 341 343 344 344 344 342 338 331 323 312 304 301 303 306
243 242 237 229 222 217 216 217 221 224 228 229 227 225 226 229 231 234 237 240 243 245 248 252 255 258 262 267 272 277 282 286 289 292 295 298 301 304 307 310 313 315 317 319 320 321 321 323 325 327 329 329 330 330 331 332 332 331 330 330 330 331 332 332 331 331 330 331 331 333 334 336 338 339 340 342 343 343 342 338 334 327 317 307 300 299 301
245 244 240 232 225 221 219 221 225 229 234 237 237 236 235 236 239 241 244 246 248 251 253 256 259 262 265 268 273 277 282 286 289 292 295 298 301 304 307 309 311 313 315 316 318 319 320 321 323 325 326 327 327 328 330 331 331 330 329 329 329 330 331 331 331 330 330 330 330 331 332 334 335 337 338 339 341 342 341 339 334 328 321 312 304 298 297
246 245 240 233 227 223 221 222 225 231 236 240 242 243 244 244 245 247 249 251 253 254 255 257 260 263 266 270 274 278 282 286 288 291 294 297 300 303 306 308 310 311 313 314 316 317 318 319 321 323 324 325 325 326 328 329 330 329 328 328 328 328 329 329 329 329 329 329 329 330 331 332 333 334 336 337 338 340 340 339 335 329 323 316 308 300 295
247 246 242 235 228 224 223 223 226 231 237 240 242 245 247 249 250 251 252 254 254 255 256 258 260 263 267 271 275 278 282 286 289 291 293 296 299 301 304 306 308 310 311 312 314 315 316 317 319 320 321 322 323 324 326 328 328 328 327 327 327 327 327 328 328 328 328 328 328 328 329 330 331 332 333 334 336 337 338 338 336 331 325 318 312 304 297
249 247 243 237 231 226 224 225 228 232 237 241 243 245 247 250 252 253 255 256 257 258 258 259 261 264 267 271 274 278 282 286 288 291 293 295 297 300 303 305 307 309 310 311 312 313 314 316 317 318 319 320 321 322 324 326 326 326 326 326 326 326 326 326 327 327 327 327 326 327 327 328 329 330 331 332 333 335 336 336 336 333 327 321 314 309 303
Height
5679 5683 5687 5690 5693 5695 5698 5701 5703 5705 5708 5711 5713 5715 5717 5719 5721 5722 5724 5725 5727 5728 5729 5731 5732 5734 5735 5736 5737 5738 5739 5741 5742 5743 5744 5744 5745 5746 5746 5746 5747 5748 5748 5748 5749 5749 5749 5749 5749 5749 5749 5749 5749 5748 5748 5747 5747 5746 5745 5744 5744 5743 5742 5742 5741 5740 5739 5738 5738 5736 5735 5733 5731 5729 5728 5727 5726 5724 5724 5723 5723 5723 5723 5723 5724 5724 5725
5679 5682 5686 5689 5692 5694 5697 5700 5702 5705 5707 5709 5711 5713 5715 5716 5718 5720 5721 5723 5724 5726 5727 5729 5730 5731 5732 5733 5734 5735 5737 5738 5739 5741 5741 5741 5742 5742 5743 5743 5744 5744 5745 5745 5745 5746 5746 5746 5746 5746 5746 5745 5745 5745 5744 5744 5743 5742 5742 5741 5740 5739 5739 5738 5737 5737 5736 5735 5735 5734 5733 5731 5729 5728 5726 5725 5724 5723 5722 5721 5721 5720 5720 5720 5720 5721 5721
5678 5682 5685 5687 5690 5693 5696 5698 5700 5702 5705 5707 5709 5711 5712 5714 5716 5718 5720 5721 5722 5724 5725 5727 5728 5729 5730 5731 5732 5733 5734 5735 5736 5738 5738 5738 5738 5739 5740 5740 5740 5741 5741 5741 5742 5742 5742 5742 5742 5742 5742 5741 5741 5741 5740 5740 5739 5739 5738 5738 5737 5736 5735 5734 5733 5733 5732 5732 5731 5730 5730 5729 5728 5726 5724 5723 5722 5721 5720 5719 5718 5718 5717 5717 5717 5717 5717
5677 5680 5683 5686 5689 5691 5694 5696 5698 5700 5702 5704 5707 5709 5710 5712 5714 5716 5717 5719 5720 5722 5723 5724 5725 5726 5727 5728 5729 5730 5731 5732 5734 5735 5735 5735 5735 5736 5736 5737 5737 5737 5737 5738 5738 5738 5738 5738 5738 5738 5738 5737 5737 5737 5736 5736 5736 5735 5734 5734 5733 5732 5731 5730 5730 5729 5728 5727 5727 5726 5726 5725 5725 5724 5722 5721 5720 5719 5718 5717 5716 5716 5715 5715 5714 5714 5714
5676 5679 5682 5684 5687 5689 5691 5693 5696 5698 5700 5702 5704 5706 5708 5710 5712 5713 5715 5717 5718 5719 5720 5721 5722 5723 5724 5725 5726 5727 5728 5730 5730 5731 5732 5732 5732 5733 5733 5733 5733 5733 5734 5734 5734 5734 5734 5734 5734 5734 5734 5733 5733 5733 5732 5732 5732 5731 5730 5729 5728 5728 5727 5726 5725 5725 5724 5723 5722 5722 5722 5721 5721 5720 5719 5718 5717 5716 5715 5714 5714 5713 5713 5712 5712 5711 5711
5675 5677 5680 5683 5685 5686 5688 5691 5694 5696 5698 5700 5702 5704 5706 5708 5709 5711 5713 5714 5716 5717 5718 5719 5720 5720 5721 5722 5723 5724 5725 5726 5727 5728 5728 5728 5729 5729 5729 5730 5730 5730 5730 5730 5730 5730 5730 5730 5730 5730 5729 5729 5729 5729 5728 5728 5727 5727 5726 5725 5724 5723 5723 5722 5721 5720 5719 5719 5718 5718 5717 5717 5716 5716 5715 5715 5714 5713 5713 5712 5711 5710 5710 5709 5709 5708 5708
5674 5676 5679 5681 5682 5684 5687 5690 5692 5694 5696 5698 5700 5702 5703 5705 5707 5708 5710 5711 5712 5714 5715 5716 5716 5717 5718 5719 5720 5721 5722 5723 5724 5724 5724 5725 5725 5725 5726 5726 5726 5726 5726 5726 5726 5726 5726 5726 5726 5725 5725 5725 5725 5724 5724 5723 5723 5722 5721 5721 5720 5719 5718 5717 5716 5715 5715 5714 5714 5713 5713 5712 5712 5711 5711 5710 5710 5710 5709 5708 5708 5707 5706 5706 5705 5705 5705
5672 5674 5676 5677 5680 5683 5686 5688 5690 5692 5694 5696 5697 5699 5700 5702 5704 5705 5707 5708 5709 5710 5711 5712 5713 5714 5715 5716 5717 5718 5719 5719 5720 5721 5721 5721 5721 5721 5722 5722 5722 5722 5722 5722 5722 5722 5721 5721 5721 5721 5721 5721 5720 5720 5719 5719 5718 5717 5716 5716 5715 5714 5713 5713 5712 5711 5710 5710 5709 5709 5709 5708 5707 5706 5706 5705 5705 5705 5705 5704 5704 5703 5703 5702 5702 5701 5701
5669 5671 5673 5676 5679 5682 5684 5686 5688 5690 5691 5693 5695 5696 5698 5699 5701 5702 5704 5705 5706 5707 5708 5709 5710 5711 5711 5712 5713 5714 5715 5716 5716 5717 5717 5717 5717 5717 5718 5718 5718 5718 5718 5718 5717 5717 5717 5717 5716 5716 5716 5716 5715 5715 5714 5714 5713 5712 5711 5710 5710 5709 5708 5708 5707 5706 5706 5705 5704 5704 5704 5703 5702 5702 5701 5700 5700 5700 5700 5700 5700 5699 5699 5698 5698 5697 5697
5668 5670 5673 5675 5677 5679 5682 5684 5685 5687 5689 5690 5692 5693 5695 5696 5698 5699 5700 5702 5703 5704 5705 5706 5706 5707 5708 5709 5710 5710 5711 5712 5712 5713 5713 5713 5713 5713 5714 5714 5714 5714 5714 5714 5713 5713 5712 5712 5712 5711 5711 5711 5710 5710 5709 5708 5708 5707 5706 5705 5704 5704 5703 5702 5701 5701 5700 5700 5699 5699 5699 5699 5698 5697 5696 5695 5695 5695 5695 5695 5695 5695 5695 5694 5694 5693 5693
5666 5669 5671 5672 5674 5677 5679 5681 5682 5684 5686 5687 5689 5690 5691 5693 5695 5696 5697 5698 5699 5700 5701 5702 5703 5704 5705 5705 5706 5707 5707 5708 5708 5708 5709 5709 5709 5710 5710 5710 5710 5710 5710 5710 5709 5709 5708 5708 5708 5707 5706 5706 5706 5705 5704 5703 5703 5702 5701 5700 5699 5698 5698 5697 5696 5695 5694 5694 5693 5693 5693 5693 5693 5693 5692 5691 5690 5689 5689 5689 5690 5690 5690 5690 5690 5689 5688
5665 5666 5668 5670 5672 5674 5676 5678 5680 5681 5683 5685 5686 5686 5688 5690 5692 5692 5694 5695 5696 5697 5698 5699 5700 5701 5701 5702 5702 5703 5703 5704 5704 5704 5705 5705 5705 5706 5706 5706 5706 5706 5706 5706 5705 5705 5704 5704 5703 5703 5702 5701 5701 5700 5699 5699 5698 5697 5696 5695 5694 5693 5692 5691 5690 5689 5688 5687 5687 5686 5687 5687 5687 5687 5687 5686 5685 5685 5684 5684 5684 5684 5685 5685 5685 5684 5684
5663 5664 5666 5667 5669 5671 5673 5675 5677 5679 5680 5681 5682 5683 5685 5688 5688 5689 5691 5692 5693 5694 5695 5696 5697 5697 5698 5698 5698 5699 5699 5700 5700 5701 5701 5701 5702 5702 5702 5702 5702 5702 5702 5702 5701 5701 5700 5699 5699 5698 5698 5697 5696 5695 5695 5694 5693 5692 5691 5690 5689 5688 5687 5686 5685 5684 5683 5682 5680 5680 5680 5680 5680 5681 5681 5681 5680 5680 5679 5679 5679 5679 5679 5679 5679 5679 5679
5660 5662 5663 5665 5667 5669 5671 5672 5674 5675 5676 5678 5679 5681 5683 5684 5685 5686 5688 5688 5690 5691 5692 5692 5693 5694 5694 5695 5695 5695 5696 5696 5697 5697 5697 5698 5698 5698 5698 5698 5698 5698 5698 5697 5697 5696 5696 5695 5695 5694 5693 5692 5691 5690 5689 5688 5688 5687 5686 5684 5683 5682 5681 5680 5679 5678 5677 5676 5675 5674 5673 5673 5672 5673 5674 5674 5674 5674 5674 5673 5673 5673 5674 5673 5673 5673 5673
5658 5659 5661 5662 5664 5666 5668 5669 5670 5671 5673 5675 5677 5678 5680 5681 5682 5684 5684 5685 5686 5687 5688 5689 5689 5690 5690 5691 5692 5692 5693 5693 5694 5694 5694 5694 5695 5695 5695 5695 5695 5694 5694 5693 5693 5692 5691 5691 5690 5689 5688 5688 5686 5685 5684 5683 5682 5681 5680 5679 5678 5676 5675 5673 5672 5672 5671 5670 5669 5668 5667 5666 5666 5665 5666 5666 5667 5668 5668 5668 5667 5668 5668 5668 5668 5668 5667
5655 5657 5658 5660 5661 5662 5664 5666 5667 5669 5671 5673 5674 5675 5677 5678 5680 5681 5682 5682 5683 5684 5685 5685 5686 5687 5687 5688 5689 5689 5690 5690 5691 5691 5691 5691 5691 5691 5692 5691 5691 5691 5690 5690 5689 5688 5687 5686 5685 5684 5684 5683 5681 5680 5680 5678 5677 5676 5674 5673 5672 5670 5669 5668 5666 5665 5664 5664 5663 5662 5661 5660 5659 5659 5658 5659 5659 5660 5661 5661 5661 5661 5661 5662 5662 5662 5662
5652 5654 5655 5657 5658 5659 5661 5663 5665 5667 5668 5670 5671 5673 5674 5675 5677 5678 5679 5679 5680 5681 5682 5683 5683 5684 5685 5685 5686 5687 5687 5688 5688 5688 5688 5689 5689 5689 5689 5688 5688 5688 5687 5686 5686 5685 5684 5682 5681 5680 5679 5678 5676 5675 5674 5673 5671 5670 5668 5667 5666 5664 5663 5661 5660 5659 5658 5657 5656 5655 5654 5654 5653 5652 5652 5652 5652 5652 5653 5654 5655 5655 5655 5655 5656 5656 5657
5649 5651 5652 5654 5655 5657 5659 5661 5662 5664 5666 5667 5669 5670 5671 5673 5674 5676 5676 5677 5678 5679 5680 5680 5681 5682 5682 5683 5684 5684 5685 5685 5686 5686 5686 5686 5686 5686 5686 5685 5685 5684 5684 5683 5682 5681 5679 5678 5677 5676 5674 5673 5671 5670 5668 5667 5665 5664 5662 5661 5660 5658 5656 5655 5654 5652 5651 5650 5649 5649 5648 5647 5647 5647 5646 5645 5645 5645 5645 5646 5647 5648 5649 5649 5649 5650 5651
5647 5649 5650 5652 5653 5655 5657 5658 5660 5661 5663 5664 5666 5667 5669 5670 5672 5673 5674 5675 5676 5677 5678 5678 5679 5680 5680 5681 5682 5682 5683 5683 5683 5684 5684 5684 5684 5683 5683 5682 5682 5681 5680 5679 5678 5677 5675 5674 5672 5671 5669 5667 5666 5664 5663 5661 5659 5658 5656 5654 5653 5651 5649 5648 5646 5645 5644 5643 5642 5642 5641 5641 5640 5640 5640 5639 5639 5639 5639 5639 5640 5641 5642 5643 5643 5643 5644
5644 5646 5648 5649 5651 5653 5654 5656 5657 5659 5660 5662 5663 5665 5667 5668 5669 5671 5672 5673 5674 5675 5675 5676 5677 5678 5678 5679 5680 5680 5681 5681 5681 5682 5681 5681 5681 5680 5680 5679 5679 5678 5677 5676 5674 5673 5671 5670 5668 5666 5664 5662 5660 5658 5656 5654 5653 5651 5649 5647 5646 5644 5642 5640 5639 5638 5637 5636 5635 5634 5634 5633 5633 5633 5633 5633 5632 5632 5632 5632 5633 5634 5635 5636 5637 5637 5638
5642 5644 5645 5647 5649 5650 5652 5653 5655 5656 5658 5660 5661 5663 5664 5666 5667 5668 5670 5671 5672 5673 5673 5674 5675 5676 5676 5677 5678 5679 5679 5679 5679 5679 5679 5679 5678 5678 5677 5676 5676 5675 5674 5672 5671 5670 5668 5666 5665 5662 5660 5658 5656 5654 5651 5649 5647 5645 5642 5640 5639 5637 5635 5633 5631 5630 5629 5628 5627 5627 5626 5625 5625 5625 5626 5626 5626 5625 5625 5625 5626 5627 5628 5629 5630 5631 5632
5640 5641 5643 5645 5646 5648 5650 5651 5653 5654 5656 5657 5659 5660 5662 5663 5665 5666 5667 5669 5670 5670 5671 5672 5673 5674 5675 5676 5676 5677 5677 5677 5677 5677 5677 5677 5676 5675 5675 5674 5673 5672 5671 5670 5669 5668 5666 5665 5663 5660 5658 5655 5653 5650 5648 5645 5642 5640 5637 5635 5633 5631 5629 5627 5625 5623 5622 5621 5620 5619 5618 5618 5617 5617 5617 5617 5618 5618 5619 5619 5619 5620 5621 5621 5623 5624 5625
5638 5639 5641 5643 5644 5646 5648 5649 5651 5652 5654 5655 5657 5658 5660 5661 5663 5664 5665 5667 5668 5669 5670 5671 5672 5673 5674 5674 5675 5675 5676 5676 5675 5675 5675 5675 5674 5674 5673 5672 5672 5671 5670 5669 5668 5666 5665 5663 5661 5659 5656 5653 5651 5648 5645 5642 5639 5636 5634 5631 5629 5627 5625 5622 5620 5618 5617 5615 5614 5612 5611 5610 5610 5610 5609 5609 5609 5610 5611 5612 5612 5612 5613 5614 5615 5617 5618
5636 5637 5639 5641 5643 5644 5646 5647 5649 5650 5652 5654 5655 5657 5658 5660 5661 5662 5664 5665 5666 5667 5668 5670 5671 5672 5673 5673 5674 5674 5674 5674 5674 5674 5673 5673 5673 5673 5672 5671 5671 5670 5669 5668 5666 5665 5663 5661 5659 5657 5654 5652 5649 5646 5643 5640 5637 5634 5631 5628 5626 5623 5621 5619 5617 5614 5612 5610 5609 5607 5605 5604 5603 5603 5602 5602 5602 5602 5603 5604 5604 5605 5606 5607 5608 5609 5611
5634 5636 5637 5639 5641 5642 5644 5646 5647 5649 5651 5652 5654 5655 5657 5658 5660 5661 5662 5664 5665 5666 5667 5669 5670 5671 5671 5672 5672 5672 5672 5672 5672 5673 5673 5672 5672 5672 5671 5671 5670 5669 5667 5666 5665 5663 5661 5659 5657 5655 5653 5650 5647 5645 5642 5639 5635 5632 5629 5626 5624 5621 5618 5616 5614 5611 5609 5607 5605 5602 5600 5599 5598 5597 5596 5595 5595 5595 5595 5596 5597 5597 5598 5599 5600 5601 5603
5632 5634 5636 5637 5639 5641 5643 5644 5646 5648 5649 5651 5652 5654 5655 5657 5658 5660 5661 5663 5664 5665 5666 5668 5669 5670 5670 5671 5671 5671 5671 5671 5672 5672 5672 5672 5671 5671 5670 5669 5668 5667 5666 5665 5663 5662 5660 5658 5656 5654 5651 5649 5646 5643 5641 5638 5635 5631 5628 5625 5622 5619 5616 5614 5611 5609 5606 5604 5601 5599 5596 5594 5593 5592 5590 5589 5589 5588 5589 5589 5589 5590 5590 5591 5592 5593 5595
5631 5632 5634 5636 5638 5640 5641 5643 5644 5646 5648 5650 5651 5653 5654 5656 5657 5659 5660 5662 5663 5664 5665 5667 5668 5668 5669 5669 5670 5670 5670 5671 5671 5671 5671 5670 5670 5669 5669 5668 5667 5666 5665 5663 5662 5660 5659 5657 5655 5653 5650 5648 5645 5643 5640 5637 5634 5631 5627 5624 5621 5617 5614 5612 5609 5606 5604 5601 5598 5595 5593 5590 5588 5587 5585 5584 5584 5583 5583 5583 5583 5583 5583 5584 5585 5586 5587
5629 5631 5633 5634 5636 5638 5640 5642 5643 5645 5647 5648 5650 5652 5653 5655 5656 5658 5659 5661 5662 5663 5665 5666 5667 5667 5668 5668 5669 5669 5670 5670 5670 5670 5670 5669 5669 5668 5667 5667 5666 5665 5663 5662 5661 5659 5657 5656 5654 5652 5649 5647 5644 5642 5639 5636 5633 5630 5626 5623 5619 5616 5613 5610 5607 5604 5601 5599 5596 5593 5590 5587 5585 5583 5581 5579 5578 5578 5577 5577 5576 5576 5576 5576 5578 5579 5580
5629 5631 5632 5634 5635 5637 5639 5641 5642 5644 5646 5647 5649 5651 5652 5654 5656 5657 5658 5660 5661 5663 5664 5665 5666 5666 5667 5667 5668 5668 5669 5669 5669 5669 5668 5668 5667 5667 5666 5665 5665 5664 5662 5661 5660 5658 5656 5655 5653 5650 5648 5646 5643 5641 5638 5635 5632 5629 5626 5623 5619 5615 5612 5608 5605 5602 5599 5596 5593 5591 5587 5584 5582 5579 5577 5575 5574 5573 5572 5572 5571 5571 5570 5570 5571 5572 5574
5628 5630 5632 5633 5634 5636 5638 5640 5642 5643 5645 5647 5649 5650 5652 5653 5655 5656 5658 5659 5661 5662 5663 5664 5665 5665 5666 5666 5667 5668 5668 5668 5668 5668 5667 5667 5666 5666 5665 5664 5663 5662 5661 5660 5658 5657 5655 5653 5651 5649 5647 5645 5642 5640 5637 5634 5631 5628 5625 5622 5619 5615 5612 5608 5605 5601 5598 5594 5592 5589 5585 5582 5579 5576 5574 5572 5570 5569 5568 5567 5567 5566 5565 5564 5565 5566 5567
5629 5630 5632 5634 5635 5636 5638 5640 5642 5643 5645 5647 5648 5650 5651 5653 5654 5656 5657 5659 5660 5661 5662 5663 5663 5664 5665 5666 5666 5666 5667 5667 5667 5666 5666 5666 5665 5665 5664 5663 5662 5661 5660 5659 5657 5655 5654 5652 5650 5648 5646 5644 5641 5639 5636 5633 5630 5627 5624 5621 5618 5615 5611 5607 5604 5600 5597 5594 5590 5587 5584 5580 5577 5574 5572 5569 5567 5565 5564 5563 5562 5561 5560 5560 5560 5560 5561
5630 5632 5633 5635 5636 5637 5639 5640 5642 5644 5645 5647 5648 5650 5651 5652 5654 5655 5656 5658 5659 5660 5661 5662 5663 5663 5664 5665 5665 5665 5666 5666 5666 5665 5665 5665 5664 5663 5663 5662 5661 5660 5659 5657 5656 5654 5653 5651 5649 5647 5645 5642 5640 5638 5635 5632 5629 5626 5623 5620 5617 5613 5610 5606 5603 5599 5596 5592 5589 5586 5582 5579 5575 5572 5569 5566 5564 5562 5561 5560 5559 5558 5556 5556 5556 5555 5555
5631 5633 5634 5636 5637 5638 5640 5641 5642 5644 5645 5647 5648 5649 5651 5652 5653 5655 5656 5657 5658 5659 5660 5661 5662 5662 5663 5663 5664 5664 5664 5664 5664 5664 5664 5663 5663 5662 5661 5661 5659 5658 5657 5655 5654 5653 5651 5649 5648 5645 5643 5641 5639 5636 5633 5631 5628 5625 5622 5619 5615 5612 5609 5605 5602 5598 5594 5591 5588 5584 5581 5578 5574 5570 5567 5564 5561 5560 5558 5557 5555 5554 5553 5552 5552 5551 5551
5632 5633 5635 5636 5637 5639 5640 5641 5642 5644 5645 5646 5647 5649 5650 5651 5653 5654 5655 5656 5657 5658 5659 5660 5661 5661 5662 5662 5663 5663 5663 5663 5663 5663 5663 5662 5662 5661 5660 5659 5658 5656 5655 5654 5653 5651 5649 5648 5646 5644 5642 5639 5637 5634 5632 5629 5626 5623 5620 5617 5614 5611 5607 5604 5600 5597 5593 5589 5586 5583 5579 5576 5573 5569 5565 5562 5559 5557 5555 5554 5552 5551 5550 5549 5548 5547 5547
5633 5634 5635 5636 5637 5639 5640 5641 5642 5643 5644 5646 5647 5648 5649 5651 5652 5653 5654 5655 5656 5657 5658 5659 5659 5660 5661 5661 5662 5662 5662 5662 5662 5662 5662 5661 5661 5660 5659 5657 5656 5655 5653 5652 5651 5649 5648 5646 5644 5642 5640 5638 5635 5633 5630 5627 5625 5622 5619 5615 5612 5609 5606 5603 5599 5596 5592 5588 5585 5581 5578 5575 5571 5568 5564 5560 5557 5554 5552 5551 5549 5548 5547 5546 5545 5544 5543
5633 5634 5635 5636 5637 5638 5639 5641 5642 5643 5644 5645 5646 5647 5649 5650 5651 5652 5653 5654 5655 5656 5657 5657 5658 5659 5660 5660 5660 5661 5661 5661 5661 5661 5660 5660 5659 5658 5657 5656 5654 5653 5652 5650 5649 5648 5646 5644 5642 5640 5638 5636 5633 5631 5628 5626 5623 5620 5617 5614 5611 5608 5605 5601 5598 5595 5591 5587 5583 5580 5577 5573 5570 5566 5562 5559 5556 5553 5550 5548 5546 5545 5544 5543 5542 5541 5540
5633 5634 5635 5636 5637 5638 5639 5640 5641 5642 5643 5644 5645 5646 5647 5648 5649 5650 5651 5652 5653 5654 5655 5656 5657 5658 5658 5659 5659 5659 5659 5659 5659 5659 5659 5658 5657 5656 5655 5654 5653 5652 5650 5649 5647 5646 5644 5642 5640 5638 5636 5634 5631 5629 5626 5624 5621 5618 5615 5612 5609 5606 5603 5600 5597 5593 5589 5586 5582 5578 5575 5571 5567 5564 5560 5557 5554 5551 5549 5546 5544 5542 5541 5540 5539 5538 5538
5632 5633 5634 5635 5636 5637 5638 5639 5640 5641 5642 5643 5644 5645 5646 5647 5648 5649 5650 5651 5652 5653 5654 5655 5656 5656 5657 5657 5657 5658 5658 5658 5658 5657 5657 5656 5655 5654 5653 5652 5651 5650 5648 5647 5645 5644 5642 5640 5638 5636 5634 5632 5629 5627 5624 5622 5619 5616 5613 5611 5607 5604 5601 5598 5595 5592 5588 5584 5580 5577 5573 5569 5565 5562 5558 5555 5552 5549 5547 5545 5542 5540 5539 5537 5536 5536 5535
5632 5633 5634 5635 5636 5636 5637 5638 5639 5640 5641 5642 5643 5644 5645 5646 5647 5648 5649 5650 5651 5652 5653 5654 5654 5655 5655 5656 5656 5656 5656 5656 5656 5656 5655 5654 5654 5652 5651 5650 5649 5648 5647 5645 5644 5642 5640 5638 5636 5634 5632 5629 5627 5624 5622 5619 5617 5614 5611 5609 5606 5602 5599 5596 5593 5590 5587 5583 5580 5576 5572 5568 5564 5560 5556 5553 5550 5547 5545 5543 5541 5539 5537 5535 5534 5533 5532
5632 5633 5633 5634 5635 5636 5637 5638 5638 5639 5640 5641 5642 5643 5644 5645 5646 5647 5648 5649 5650 5651 5652 5652 5653 5653 5654 5654 5654 5655 5655 5655 5654 5654 5653 5653 5652 5651 5650 5649 5648 5646 5645 5644 5642 5640 5638 5636 5634 5632 5629 5627 5624 5622 5620 5617 5615 5612 5609 5606 5603 5600 5597 5594 5591 5588 5585 5582 5578 5574 5571 5567 5563 5559 5555 5551 5548 5545 5543 5541 5539 5537 5535 5533 5532 5531 5530
5631 5632 5633 5633 5634 5635 5636 5637 5638 5639 5640 5641 5641 5642 5643 5644 5645 5646 5647 5648 5649 5649 5650 5651 5651 5652 5652 5652 5653 5653 5653 5653 5652 5652 5652 5651 5650 5649 5648 5647 5646 5644 5643 5642 5640 5638 5636 5634 5632 5630 5627 5625 5622 5620 5617 5615 5612 5610 5607 5604 5601 5598 5595 5592 5589 5586 5583 5579 5576 5573 5569 5565 5561 5557 5553 5550 5546 5543 5541 5539 5537 5535 5533 5532 5530 5529 5528
5631 5631 5632 5632 5633 5634 5635 5636 5637 5637 5638 5639 5640 5641 5642 5642 5643 5644 5645 5646 5647 5648 5649 5649 5650 5650 5651 5651 5651 5651 5651 5651 5651 5650 5650 5649 5648 5647 5646 5645 5644 5642 5641 5639 5638 5636 5634 5632 5629 5627 5625 5622 5620 5617 5615 5612 5610 5607 5604 5602 5599 5596 5593 5590 5586 5583 5580 5577 5574 5571 5567 5564 5560 5556 5552 5549 5545 5542 5539 5537 5535 5534 5532 5530 5529 5527 5526
5630 5630 5631 5631 5632 5633 5634 5635 5635 5636 5637 5638 5639 5639 5640 5641 5642 5643 5644 5645 5646 5646 5647 5648 5648 5649 5649 5649 5649 5649 5649 5649 5649 5648 5647 5647 5646 5645 5644 5643 5642 5640 5639 5637 5635 5633 5631 5629 5627 5625 5622 5620 5617 5615 5612 5610 5607 5604 5602 5599 5596 5593 5590 5587 5584 5581 5578 5575 5572 5569 5565 5562 5558 5554 5551 5547 5544 5541 5537 5535 5533 5532 5531 5529 5528 5526 5524
5629 5629 5630 5630 5631 5632 5633 5634 5635 5635 5636 5637 5638 5639 5639 5640 5641 5642 5643 5644 5644 5645 5646 5646 5647 5647 5647 5647 5647 5647 5647 5647 5647 5646 5645 5644 5644 5643 5642 5640 5639 5638 5636 5635 5633 5631 5629 5627 5624 5622 5620 5617 5615 5612 5610 5607 5604 5602 5599 5596 5594 5591 5588 5585 5582 5579 5576 5573 5570 5566 5563 5560 5556 5552 5549 5546 5542 5539 5536 5533 5531 5530 5529 5527 5526 5524 5523
5628 5628 5629 5629 5630 5631 5632 5633 5634 5634 5635 5636 5637 5637 5638 5639 5640 5641 5642 5642 5643 5644 5644 5644 5645 5645 5645 5645 5645 5645 5645 5645 5644 5644 5643 5642 5641 5640 5639 5638 5637 5635 5634 5632 5630 5628 5626 5624 5622 5619 5617 5614 5612 5609 5607 5604 5601 5599 5596 5594 5591 5588 5585 5582 5579 5576 5573 5570 5567 5564 5561 5558 5554 5551 5547 5544 5540 5537 5534 5531 5529 5528 5527 5525 5524 5522 5521
5626 5627 5627 5628 5629 5630 5631 5632 5633 5633 5634 5635 5635 5636 5637 5638 5639 5639 5640 5641 5641 5642 5642 5643 5643 5643 5643 5643 5643 5643 5643 5642 5642 5641 5640 5640 5639 5638 5636 5635 5634 5632 5631 5629 5627 5625 5623 5621 5619 5616 5614 5612 5609 5607 5604 5601 5599 5596 5593 5591 5588 5585 5582 5579 5576 5573 5571 5568 5565 5562 5559 5556 5553 5549 5545 5542 5539 5536 5533 5530 5528 5526 5524 5523 5522 5521 5519
5625 5625 5626 5627 5627 5628 5629 5630 5631 5632 5633 5633 5634 5635 5635 5636 5637 5638 5638 5639 5639 5640 5640 5641 5641 5641 5641 5641 5641 5640 5640 5640 5639 5638 5638 5637 5636 5635 5634 5632 5631 5629 5628 5626 5624 5622 5620 5618 5616 5613 5611 5609 5606 5604 5601 5599 5596 5593 5590 5588 5585 5582 5579 5577 5574 5571 5568 5565 5562 5559 5557 5554 5550 5547 5543 5540 5537 5534 5531 5529 5526 5524 5522 5521 5519 5518 5518
5623 5624 5624 5625 5626 5627 5628 5629 5629 5630 5631 5632 5633 5633 5634 5634 5635 5636 5636 5637 5637 5638 5638 5638 5638 5638 5638 5638 5638 5638 5637 5637 5636 5635 5635 5634 5633 5632 5630 5629 5628 5626 5624 5622 5621 5619 5617 5615 5612 5610 5608 5606 5603 5601 5598 5596 5593 5590 5588 5585 5582 5579 5576 5574 5571 5568 5565 5562 5559 5556 5554 5551 5548 5544 5541 5538 5535 5532 5529 5526 5524 5522 5520 5518 5517 5516 5515
5621 5622 5623 5623 5624 5625 5626 5627 5628 5629 5629 5630 5631 5631 5632 5632 5633 5633 5634 5634 5635 5635 5635 5636 5636 5636 5636 5635 5635 5635 5634 5634 5633 5633 5632 5631 5630 5628 5627 5626 5624 5623 5621 5619 5617 5615 5613 5611 5609 5607 5605 5602 5600 5598 5595 5593 5590 5587 5584 5582 5579 5576 5573 5571 5568 5565 5562 5559 5556 5554 5551 5548 5545 5542 5539 5536 5533 5530 5527 5524 5522 5520 5517 5516 5514 5513 5513
5619 5620 5621 5621 5622 5623 5624 5625 5626 5627 5627 5628 5629 5629 5630 5630 5631 5631 5632 5632 5632 5633 5633 5633 5633 5633 5633 5632 5632 5632 5631 5631 5630 5629 5628 5627 5626 5625 5624 5622 5621 5619 5617 5616 5614 5612 5610 5608 5606 5603 5601 5599 5597 5594 5592 5589 5587 5584 5581 5579 5576 5573 5570 5568 5565 5562 5559 5556 5553 5551 5548 5545 5543 5540 5537 5534 5531 5528 5525 5522 5520 5517 5515 5513 5512 5510 5510
5617 5618 5619 5619 5620 5621 5622 5623 5624 5625 5625 5626 5627 5627 5628 5628 5628 5629 5629 5629 5630 5630 5630 5630 5630 5630 5629 5629 5629 5628 5628 5627 5627 5626 5625 5624 5623 5621 5620 5619 5617 5616 5614 5612 5610 5608 5606 5604 5602 5600 5598 5595 5593 5591 5588 5586 5583 5581 5578 5575 5572 5570 5567 5564 5561 5559 5556 5553 5550 5548 5545 5542 5540 5537 5534 5531 5529 5526 5523 5520 5518 5515 5513 5511 5509 5508 5507
5615 5616 5616 5617 5618 5619 5620 5621 5622 5622 5623 5624 5624 5625 5625 5626 5626 5626 5626 5627 5627 5627 5627 5627 5627 5626 5626 5626 5625 5625 5624 5624 5623 5622 5621 5620 5619 5618 5616 5615 5613 5612 5610 5608 5606 5604 5602 5600 5598 5596 5594 5591 5589 5587 5585 5582 5580 5577 5574 5572 5569 5566 5563 5561 5558 5555 5552 5550 5547 5544 5542 5539 5536 5534 5531 5528 5526 5523 5520 5517 5515 5513 5511 5509 5507 5505 5504